FW8535 Weather Reports


Display with metric or nautical units.
time (UTC)temp
F
wind
direction
speed
MPH
gust
MPH
rain 1hr
in
rain 24hr
in
rain mn
in
humidity
%
barometer
mb
20260901060045 58 207 0.0 3.0 0.00 0.00 0.00 60 1013.2
20260901055544 58 207 1.0 4.0 0.00 0.00 0.00 59 1013.2
20260901055144 59 275 0.0 0.0 0.00 0.00 0.00 59 1013.1
20260901054546 59 275 0.0 0.0 0.00 0.00 0.00 59 1013.1
20260901054046 59 275 0.0 0.0 0.00 0.00 0.00 59 1013.0
20260901053547 59 275 0.0 0.0 0.00 0.00 0.00 59 1012.8
20260901053100 59 275 0.0 0.0 0.00 0.00 0.00 59 1012.8
20260901052545 59 275 0.0 0.0 0.00 0.00 0.00 59 1012.8
20260901052045 59 275 0.0 0.0 0.00 0.00 0.00 59 1012.9
20260901051545 59 275 0.0 0.0 0.00 0.00 0.00 58 1012.9
20260901051045 59 275 0.0 0.0 0.00 0.00 0.00 58 1012.9
20260901050547 59 275 0.0 0.0 0.00 0.00 0.00 58 1012.6
20260901050044 59 275 0.0 2.0 0.00 0.00 0.00 58 1012.7
20260901045547 59 275 0.0 2.0 0.00 0.00 0.00 58 1012.7
20260901045143 59 275 1.0 2.0 0.00 0.00 0.00 58 1012.5
20260901044549 59 275 1.0 2.0 0.00 0.00 0.00 58 1012.5
20260901044041 59 275 0.0 2.0 0.00 0.00 0.00 58 1012.4
20260901043541 59 275 1.0 2.0 0.00 0.00 0.00 58 1012.5
20260901043100 59 275 1.0 3.0 0.00 0.00 0.00 57 1012.5
20260901042539 59 275 1.0 3.0 0.00 0.00 0.00 57 1012.5
20260901042039 60 275 0.0 2.0 0.00 0.00 0.00 56 1012.6
20260901041539 60 275 0.0 0.0 0.00 0.00 0.00 56 1012.5
20260901041038 60 275 0.0 0.0 0.00 0.00 0.00 54 1012.6
20260901040539 61 275 0.0 2.0 0.00 0.00 0.00 53 1012.4
20260901040052 62 275 0.0 3.0 0.00 0.00 0.00 52 1012.4
20260901035537 63 275 1.0 3.0 0.00 0.00 0.00 52 1012.4
20260901035138 64 275 0.0 2.0 0.00 0.00 0.00 50 1012.6
20260901034552 64 275 0.0 2.0 0.00 0.00 0.00 50 1012.6
20260901034037 64 275 0.0 2.0 0.00 0.00 0.00 50 1012.7
20260901033538 64 275 0.0 2.0 0.00 0.00 0.00 50 1012.7
20260901033052 64 276 0.0 2.0 0.00 0.00 0.00 49 1012.6
20260901032538 65 276 0.0 3.0 0.00 0.00 0.00 49 1012.6
20260901032036 65 276 0.0 4.0 0.00 0.00 0.00 48 1012.7
20260901031536 65 275 3.0 4.0 0.00 0.00 0.00 48 1012.7
20260901031037 66 279 2.0 4.0 0.00 0.00 0.00 47 1012.5
20260901030539 66 284 1.0 4.0 0.00 0.00 0.00 47 1012.6
20260901030035 66 279 1.0 4.0 0.00 0.00 0.00 48 1012.6
20260901025535 66 266 2.0 4.0 0.00 0.00 0.00 48 1012.6
20260901025035 66 270 2.0 3.0 0.00 0.00 0.00 48 1012.3
20260901024545 66 270 2.0 3.0 0.00 0.00 0.00 48 1012.4
20260901024035 66 270 2.0 4.0 0.00 0.00 0.00 47 1012.6
20260901023534 66 270 2.0 4.0 0.00 0.00 0.00 46 1012.3
20260901023036 67 270 2.0 3.0 0.00 0.00 0.00 46 1012.4
20260901022534 67 270 1.0 3.0 0.00 0.00 0.00 46 1012.4
20260901022034 67 270 2.0 3.0 0.00 0.00 0.00 45 1012.5
20260901021533 68 270 2.0 3.0 0.00 0.00 0.00 45 1012.4
20260901021033 68 270 2.0 3.0 0.00 0.00 0.00 44 1012.2
20260901020535 69 270 2.0 3.0 0.00 0.00 0.00 43 1012.1
20260901020034 70 270 1.0 3.0 0.00 0.00 0.00 42 1011.9
20260901015531 71 270 2.0 4.0 0.00 0.00 0.00 40 1011.9
20260901015131 73 273 2.0 7.0 0.00 0.00 0.00 39 1011.7
20260901014531 73 274 2.0 7.0 0.00 0.00 0.00 39 1011.6
20260901014030 73 290 2.0 9.0 0.00 0.00 0.00 39 1011.5
20260901013532 73 290 4.0 10.0 0.00 0.00 0.00 38 1011.5
20260901013030 74 277 5.0 14.0 0.00 0.00 0.00 38 1011.5
20260901012529 74 273 5.0 14.0 0.00 0.00 0.00 38 1011.4
20260901012032 74 252 3.0 10.0 0.00 0.00 0.00 38 1011.4
20260901011529 75 282 4.0 10.0 0.00 0.00 0.00 37 1011.4
20260901011029 75 278 4.0 11.0 0.00 0.00 0.00 37 1011.4
20260901010528 76 317 5.0 15.0 0.00 0.00 0.00 36 1011.4
20260901010034 76 267 5.0 13.0 0.00 0.00 0.00 36 1011.3
20260901005531 77 305 5.0 13.0 0.00 0.00 0.00 36 1011.2
20260901005127 77 275 5.0 12.0 0.00 0.00 0.00 35 1011.2
20260901004526 77 273 5.0 12.0 0.00 0.00 0.00 35 1011.1
20260901004025 77 248 4.0 12.0 0.00 0.00 0.00 35 1011.2
20260901003528 78 304 4.0 16.0 0.00 0.00 0.00 35 1011.1
20260901003025 78 272 9.0 20.0 0.00 0.00 0.00 34 1011.1
20260901002527 78 285 8.0 20.0 0.00 0.00 0.00 34 1011.0
20260901002025 78 252 5.0 17.0 0.00 0.00 0.00 34 1011.0
20260901001528 78 322 8.0 17.0 0.00 0.00 0.00 33 1011.1
20260901001025 78 304 6.0 16.0 0.00 0.00 0.00 34 1011.1
20260901000524 79 265 8.0 16.0 0.00 0.00 0.00 33 1011.1
20260901000024 79 290 8.0 19.0 0.00 0.00 0.00 32 1011.1
20260831235525 79 262 9.0 19.0 0.00 0.00 0.00 33 1011.0
20260831235026 79 268 7.0 16.0 0.00 0.00 0.00 32 1010.8
20260831234535 79 273 8.0 18.0 0.00 0.00 0.00 32 1010.9
20260831234025 80 265 6.0 18.0 0.00 0.00 0.00 33 1010.9
20260831233525 80 254 9.0 19.0 0.00 0.00 0.00 32 1010.8
20260831233025 79 303 7.0 19.0 0.00 0.00 0.00 33 1010.8
20260831232525 80 292 8.0 17.0 0.00 0.00 0.00 33 1011.0
20260831232025 80 264 8.0 18.0 0.00 0.00 0.00 33 1010.9
20260831231524 81 244 9.0 18.0 0.00 0.00 0.00 32 1010.9
20260831231024 81 248 7.0 16.0 0.00 0.00 0.00 32 1010.9
20260831230524 81 289 9.0 16.0 0.00 0.00 0.00 32 1010.9
20260831230025 81 271 9.0 16.0 0.00 0.00 0.00 33 1011.1
20260831225526 80 263 7.0 19.0 0.00 0.00 0.00 33 1011.1
20260831225124 80 321 8.0 20.0 0.00 0.00 0.00 32 1011.0
20260831224527 81 355 6.0 20.0 0.00 0.00 0.00 32 1011.0
20260831224026 81 271 10.0 20.0 0.00 0.00 0.00 32 1011.1
20260831223527 81 252 6.0 19.0 0.00 0.00 0.00 32 1011.0
20260831223026 81 242 10.0 19.0 0.00 0.00 0.00 32 1010.7
20260831222526 81 308 9.0 23.0 0.00 0.00 0.00 31 1010.9
20260831222029 82 282 8.0 17.0 0.00 0.00 0.00 32 1010.8
20260831221527 81 264 10.0 18.0 0.00 0.00 0.00 32 1010.8
20260831221025 81 278 9.0 18.0 0.00 0.00 0.00 32 1010.7
20260831220525 81 269 9.0 19.0 0.00 0.00 0.00 32 1010.8
20260831220029 81 289 9.0 22.0 0.00 0.00 0.00 32 1010.8
20260831215525 81 290 12.0 22.0 0.00 0.00 0.00 31 1010.9
20260831214523 81 267 9.0 18.0 0.00 0.00 0.00 32 1010.8
20260831214022 81 257 9.0 18.0 0.00 0.00 0.00 32 1010.8
20260831213522 81 237 9.0 18.0 0.00 0.00 0.00 32 1010.8
20260831213035 81 275 8.0 19.0 0.00 0.00 0.00 32 1010.8
20260831212522 81 247 9.0 19.0 0.00 0.00 0.00 33 1010.8
20260831212022 81 272 7.0 23.0 0.00 0.00 0.00 32 1010.8
20260831211522 81 261 11.0 23.0 0.00 0.00 0.00 32 1010.9
20260831211021 81 248 10.0 19.0 0.00 0.00 0.00 32 1011.0
20260831210521 81 315 12.0 27.0 0.00 0.00 0.00 32 1011.3
20260831210021 81 248 12.0 27.0 0.00 0.00 0.00 31 1010.9
20260831205520 81 261 9.0 19.0 0.00 0.00 0.00 32 1011.0
20260831205024 81 272 9.0 18.0 0.00 0.00 0.00 32 1011.2
20260831204522 81 272 11.0 18.0 0.00 0.00 0.00 32 1011.2
20260831204022 81 268 9.0 18.0 0.00 0.00 0.00 33 1011.1
20260831203522 81 253 7.0 23.0 0.00 0.00 0.00 33 1011.0
20260831203036 81 260 10.0 23.0 0.00 0.00 0.00 31 1011.0
20260831202519 80 286 10.0 21.0 0.00 0.00 0.00 32 1011.0
20260831202019 80 238 9.0 21.0 0.00 0.00 0.00 33 1010.8
20260831201519 80 250 9.0 23.0 0.00 0.00 0.00 34 1011.0
20260831201018 79 261 13.0 23.0 0.00 0.00 0.00 34 1011.1
20260831200518 79 223 10.0 29.0 0.00 0.00 0.00 34 1011.0
20260831200017 80 229 10.0 24.0 0.00 0.00 0.00 34 1011.0
20260831195516 80 246 10.0 26.0 0.00 0.00 0.00 34 1010.9
20260831195115 80 263 10.0 20.0 0.00 0.00 0.00 35 1011.0
20260831194523 80 295 9.0 20.0 0.00 0.00 0.00 35 1011.0
20260831194019 79 259 9.0 29.0 0.00 0.00 0.00 36 1011.0
20260831193519 79 247 11.0 29.0 0.00 0.00 0.00 36 1011.1
20260831193021 79 263 11.0 22.0 0.00 0.00 0.00 36 1010.9
20260831192524 79 271 11.0 22.0 0.00 0.00 0.00 37 1011.0
20260831192017 79 273 11.0 23.0 0.00 0.00 0.00 37 1011.0
20260831191516 79 265 10.0 24.0 0.00 0.00 0.00 37 1011.1
20260831191017 78 253 12.0 24.0 0.00 0.00 0.00 37 1011.0
20260831190515 78 249 9.0 23.0 0.00 0.00 0.00 38 1010.9
20260831190015 78 315 10.0 23.0 0.00 0.00 0.00 38 1011.0
20260831185517 78 245 14.0 21.0 0.00 0.00 0.00 37 1010.9
20260831185014 78 246 9.0 24.0 0.00 0.00 0.00 38 1010.9
20260831184507 78 247 9.0 24.0 0.00 0.00 0.00 38 1010.9
20260831184006 77 251 10.0 24.0 0.00 0.00 0.00 38 1010.8
20260831183507 78 262 12.0 21.0 0.00 0.00 0.00 38 1010.8
20260831183006 78 256 12.0 20.0 0.00 0.00 0.00 38 1010.8
20260831182505 78 238 8.0 17.0 0.00 0.00 0.00 38 1010.9
20260831182004 78 303 9.0 19.0 0.00 0.00 0.00 39 1010.9
20260831181503 77 259 8.0 21.0 0.00 0.00 0.00 39 1010.8
20260831181002 76 267 11.0 21.0 0.00 0.00 0.00 40 1010.9
20260831180502 76 290 10.0 23.0 0.00 0.00 0.00 40 1010.8
20260831180003 76 279 12.0 23.0 0.00 0.00 0.00 39 1011.0
20260831175502 77 264 10.0 20.0 0.00 0.00 0.00 39 1011.2
20260831175102 77 286 8.0 20.0 0.00 0.00 0.00 40 1011.2
20260831174100 76 292 10.0 18.0 0.00 0.00 0.00 40 1010.9
20260831173603 76 290 11.0 24.0 0.00 0.00 0.00 40 1010.9
20260831173100 75 272 9.0 24.0 0.00 0.00 0.00 41 1011.0
20260831172601 75 258 9.0 20.0 0.00 0.00 0.00 41 1011.0
20260831172056 75 246 10.0 26.0 0.00 0.00 0.00 41 1011.0
20260831171604 75 250 13.0 26.0 0.00 0.00 0.00 40 1011.1
20260831171055 74 265 10.0 24.0 0.00 0.00 0.00 41 1010.8
20260831170554 74 280 11.0 24.0 0.00 0.00 0.00 41 1010.8
20260831170054 74 254 13.0 23.0 0.00 0.00 0.00 41 1010.7
20260831165554 73 292 11.0 22.0 0.00 0.00 0.00 41 1010.8
20260831165052 73 238 10.0 21.0 0.00 0.00 0.00 41 1010.8
20260831164056 73 294 11.0 21.0 0.00 0.00 0.00 41 1010.8
20260831163554 73 254 12.0 19.0 0.00 0.00 0.00 41 1010.7
20260831163054 73 278 11.0 20.0 0.00 0.00 0.00 41 1010.7
20260831162553 72 238 11.0 20.0 0.00 0.00 0.00 41 1010.6
20260831162052 72 269 11.0 20.0 0.00 0.00 0.00 40 1010.7
20260831161552 72 267 10.0 20.0 0.00 0.00 0.00 40 1010.7
20260831161052 72 261 11.0 20.0 0.00 0.00 0.00 40 1010.8
20260831160551 72 261 12.0 24.0 0.00 0.00 0.00 40 1010.6
20260831160117 72 270 12.0 26.0 0.00 0.00 0.00 40 1010.8
20260831155550 71 277 14.0 26.0 0.00 0.00 0.00 39 1010.7
20260831155049 71 263 11.0 27.0 0.00 0.00 0.00 40 1010.6
20260831154051 71 261 12.0 27.0 0.00 0.00 0.00 41 1010.5
20260831153546 70 240 12.0 27.0 0.00 0.00 0.00 41 1010.5
20260831153121 70 263 13.0 23.0 0.00 0.00 0.00 41 1010.5
20260831152544 69 234 11.0 23.0 0.00 0.00 0.00 42 1010.7
20260831152045 69 237 12.0 19.0 0.00 0.00 0.00 42 1010.5
20260831151542 69 238 8.0 20.0 0.00 0.00 0.00 43 1010.4
20260831151042 68 253 14.0 20.0 0.00 0.00 0.00 42 1010.4
20260831150544 68 236 10.0 27.0 0.00 0.00 0.00 43 1010.6
20260831150040 68 237 12.0 27.0 0.00 0.00 0.00 43 1010.6
20260831145539 68 265 10.0 21.0 0.00 0.00 0.00 42 1010.4
20260831145042 67 290 12.0 27.0 0.00 0.00 0.00 42 1010.4
20260831144039 67 233 14.0 27.0 0.00 0.00 0.00 42 1010.2
20260831143538 67 228 14.0 25.0 0.00 0.00 0.00 43 1010.1
20260831143038 66 236 11.0 21.0 0.00 0.00 0.00 44 1010.1
20260831142536 65 256 13.0 26.0 0.00 0.00 0.00 44 1010.2
20260831142035 65 238 12.0 26.0 0.00 0.00 0.00 45 1010.4
20260831141535 64 284 16.0 23.0 0.00 0.00 0.00 45 1010.3
20260831141035 64 229 13.0 19.0 0.00 0.00 0.00 46 1010.2
20260831140530 64 241 10.0 18.0 0.00 0.00 0.00 47 1010.4
20260831140029 63 248 11.0 18.0 0.00 0.00 0.00 48 1010.3
20260831135529 62 238 11.0 18.0 0.00 0.00 0.00 49 1010.4
20260831135129 62 246 11.0 17.0 0.00 0.00 0.00 50 1010.5
20260831134027 61 240 11.0 20.0 0.00 0.00 0.00 52 1010.4
20260831133526 60 240 10.0 17.0 0.00 0.00 0.00 53 1010.4
20260831133125 60 238 10.0 17.0 0.00 0.00 0.00 54 1010.4
20260831132523 59 232 9.0 16.0 0.00 0.00 0.00 55 1010.3
20260831132022 59 251 9.0 14.0 0.00 0.00 0.00 56 1010.3
20260831131525 59 233 5.0 14.0 0.00 0.00 0.00 57 1010.4
20260831131019 58 235 7.0 14.0 0.00 0.00 0.00 57 1010.2
20260831130518 58 222 6.0 17.0 0.00 0.00 0.00 57 1010.0
20260831130017 57 246 10.0 17.0 0.00 0.00 0.00 58 1010.1
20260831125516 57 223 6.0 12.0 0.00 0.00 0.00 59 1010.0
20260831125017 56 266 5.0 12.0 0.00 0.00 0.00 59 1009.9
20260831124013 56 238 5.0 13.0 0.00 0.00 0.00 60 1010.0
20260831123515 56 244 6.0 15.0 0.00 0.00 0.00 60 1009.8
20260831123111 56 257 9.0 15.0 0.00 0.00 0.00 60 1009.8
20260831122511 56 234 8.0 13.0 0.00 0.00 0.00 61 1009.7
20260831122011 55 238 8.0 12.0 0.00 0.00 0.00 63 1009.8
20260831121521 55 232 7.0 13.0 0.00 0.00 0.00 63 1009.8
20260831121013 56 239 7.0 13.0 0.00 0.00 0.00 62 1009.8
20260831120509 56 234 7.0 14.0 0.00 0.00 0.00 62 1009.9
20260831120023 56 233 9.0 15.0 0.00 0.00 0.00 63 1009.9
20260831115508 56 229 10.0 15.0 0.00 0.00 0.00 64 1009.7
20260831115014 55 221 9.0 12.0 0.00 0.00 0.00 68 1009.5
20260831114009 55 223 9.0 12.0 0.00 0.00 0.00 70 1009.7
20260831113511 55 229 8.0 15.0 0.00 0.00 0.00 69 1009.4
20260831113008 55 225 9.0 15.0 0.00 0.00 0.00 67 1009.4
20260831112508 55 244 9.0 15.0 0.00 0.00 0.00 68 1009.2
20260831112008 55 242 9.0 15.0 0.00 0.00 0.00 70 1009.2
20260831111506 55 199 7.0 15.0 0.00 0.00 0.00 70 1009.1
20260831111007 54 215 8.0 12.0 0.00 0.00 0.00 70 1009.1
20260831110507 54 230 7.0 11.0 0.00 0.00 0.00 71 1009.2
20260831110006 54 227 7.0 9.0 0.00 0.00 0.00 71 1009.1
20260831105506 53 234 6.0 10.0 0.00 0.00 0.00 74 1009.1
20260831105009 54 211 5.0 10.0 0.00 0.00 0.00 73 1008.8
20260831104007 56 219 7.0 13.0 0.00 0.00 0.00 70 1008.9
20260831103506 56 227 9.0 13.0 0.00 0.00 0.00 69 1008.9
20260831103005 55 229 7.0 10.0 0.00 0.00 0.00 71 1008.9
20260831102506 56 222 7.0 18.0 0.00 0.00 0.00 71 1009.0
20260831102005 56 222 8.0 18.0 0.00 0.00 0.00 69 1009.1
20260831101506 56 237 4.0 16.0 0.00 0.00 0.00 71 1009.0
20260831101005 56 238 8.0 16.0 0.00 0.00 0.00 73 1009.0
20260831100502 56 236 7.0 15.0 0.00 0.00 0.00 75 1009.1
20260831100003 56 229 10.0 15.0 0.00 0.00 0.00 76 1009.2
20260831095501 56 225 10.0 15.0 0.00 0.00 0.00 76 1009.2
20260831095100 56 239 11.0 15.0 0.00 0.00 0.00 78 1009.1
20260831094035 53 250 7.0 11.0 0.00 0.00 0.00 85 1009.1
20260831093532 51 229 4.0 10.0 0.00 0.00 0.00 85 1009.4
20260831093030 51 143 0.0 4.0 0.00 0.00 0.00 83 1009.3
20260831092529 52 143 2.0 4.0 0.00 0.00 0.00 83 1009.1
20260831092032 52 143 1.0 6.0 0.00 0.00 0.00 83 1009.1
20260831091528 53 150 3.0 6.0 0.00 0.00 0.00 82 1009.1
20260831090557 53 140 5.0 10.0 0.00 0.00 0.00 81 1009.0
20260831090054 54 123 5.0 10.0 0.00 0.00 0.00 81 1009.0
20260831085554 54 200 2.0 6.0 0.00 0.00 0.00 81 1008.9
20260831085055 53 185 3.0 7.0 0.00 0.00 0.00 82 1008.9
20260831084557 54 188 3.0 8.0 0.00 0.00 0.00 82 1008.8
20260831084053 54 187 6.0 9.0 0.00 0.00 0.00 82 1008.9
20260831083554 53 181 5.0 7.0 0.00 0.00 0.00 83 1008.7
20260831083057 53 199 5.0 7.0 0.00 0.00 0.00 83 1008.8
20260831082554 53 195 3.0 8.0 0.00 0.00 0.00 82 1008.6
20260831082052 54 212 5.0 8.0 0.00 0.00 0.00 82 1008.7
20260831081558 54 210 5.0 8.0 0.00 0.00 0.00 82 1008.7
20260831080554 54 209 6.0 9.0 0.00 0.00 0.00 82 1008.6
20260831080050 54 221 6.0 11.0 0.00 0.00 0.00 81 1008.7
20260831075550 55 209 7.0 11.0 0.00 0.00 0.00 81 1008.6
20260831075049 55 190 8.0 11.0 0.00 0.00 0.00 81 1008.6
20260831074553 55 193 8.0 12.0 0.00 0.00 0.00 81 1008.7
20260831074048 55 204 7.0 10.0 0.00 0.00 0.00 80 1008.5
20260831073551 55 196 5.0 11.0 0.00 0.00 0.00 79 1008.6
20260831073048 55 189 8.0 12.0 0.00 0.00 0.00 79 1008.6
20260831072551 55 215 8.0 10.0 0.00 0.00 0.00 78 1008.7
20260831072046 55 215 6.0 9.0 0.00 0.00 0.00 78 1008.6
20260831071546 55 217 7.0 9.0 0.00 0.00 0.00 77 1008.6
20260831070549 54 220 5.0 8.0 0.00 0.00 0.00 77 1008.6
20260831070108 54 222 6.0 10.0 0.00 0.00 0.00 77 1008.7
20260831065546 54 225 6.0 11.0 0.00 0.00 0.00 78 1008.6
20260831065044 54 209 7.0 11.0 0.00 0.00 0.00 79 1008.6
20260831064645 54 209 4.0 7.0 0.00 0.00 0.00 78 1008.7
20260831064043 54 229 4.0 5.0 0.00 0.00 0.00 77 1008.7
20260831063541 55 241 3.0 5.0 0.00 0.00 0.00 76 1008.5
20260831063041 55 242 2.0 7.0 0.00 0.00 0.00 77 1008.8
20260831062541 55 241 3.0 7.0 0.00 0.00 0.00 77 1008.8
20260831062041 54 257 2.0 7.0 0.00 0.00 0.00 79 1008.7
20260831061541 54 258 1.0 7.0 0.00 0.00 0.00 80 1008.9
20260831060540 52 227 4.0 7.0 0.00 0.00 0.00 83 1009.1